Weather History for KVAD - September, 2013

Change the Weather History Date:

Tuesday, September 24, 2013

  Actual Average Record
Temperature  
Mean Temperature 75 °F -  
Max Temperature 79 °F 82 °F 91 °F (1997)
Min Temperature 71 °F 65 °F 59 °F (2012)
Cooling Degree Days 10    
Growing Degree Days 25 (Base 50)    
Moisture  
Dew Point 71 °F    
Average Humidity 90    
Maximum Humidity 100    
Minimum Humidity 77    
Precipitation  
Precipitation 0.00 in - - ()
Sea Level Pressure  
Sea Level Pressure 29.92 in    
Wind  
Wind Speed 7 mph (ENE)    
Max Wind Speed 14 mph    
Max Gust Speed 17 mph    
Visibility 10 miles    
Events Rain    
Averages and records for this station are not official NWS values.
T = Trace of Precipitation, MM = Missing Value Source: NWS Daily Summary

Daily Weather History Graph

Daily Weather History Graph

Search for Another Location

Airport or City:

Trip Planner

Search our weather history database for the weather conditions in past years. The results will help you decide how hot, cold, wet, or windy it might be!

Date:

Astronomy

Sep. 24, 2013 Rise Set
Actual Time 7:22 AM EDT 7:26 PM EDT
Civil Twilight 6:58 AM EDT 7:50 PM EDT
Nautical Twilight 6:30 AM EDT 8:18 PM EDT
Astronomical Twilight 6:01 AM EDT 8:46 PM EDT
Moon 11:03 PM EDT (9/24) 12:16 PM EDT (9/24)
Length of Visible Light 12h 52m
Length of Day
12h 04m
Waning Gibbous, 73% of the Moon is Illuminated
Sep 24
Waning Gibbous
Sep 26
Last Quarter
Oct 4
New
Oct 11
First Quarter
Oct 18
Full

Hourly Weather History & Observations

Time (EDT) Temp. Dew Point Humidity Pressure Visibility Wind Dir Wind Speed Gust Speed Precip Events Conditions
12:00 AM 71.6 °F 69.8 °F 94% 29.97 in 10.0 mi ENE 6.9 mph - N/A   Overcast
12:23 AM 71.6 °F 69.8 °F 94% 29.97 in 10.0 mi East 4.6 mph - N/A   Overcast
12:58 AM 71.8 °F 69.4 °F 92% 29.96 in 10.0 mi East 6.9 mph - N/A   Overcast
1:10 AM 71.6 °F 69.8 °F 94% 29.96 in 10.0 mi East 6.9 mph - N/A   Overcast
1:20 AM 71.6 °F 69.8 °F 94% 29.95 in 10.0 mi East 8.1 mph - N/A   Overcast
1:32 AM 71.6 °F 69.8 °F 94% 29.95 in 10.0 mi East 8.1 mph - N/A   Overcast
1:58 AM 71.8 °F 69.6 °F 93% 29.94 in 10.0 mi East 8.1 mph - N/A   Overcast
2:25 AM 71.6 °F 69.8 °F 94% 29.95 in 10.0 mi East 5.8 mph - N/A   Overcast
2:27 AM 71.6 °F 69.8 °F 94% 29.95 in 10.0 mi East 5.8 mph - N/A   Overcast
2:31 AM 71.6 °F 69.8 °F 94% 29.94 in 10.0 mi East 4.6 mph - N/A   Overcast
2:58 AM 71.4 °F 70.0 °F 95% 29.94 in 10.0 mi East 5.8 mph - N/A   Overcast
3:12 AM 71.6 °F 69.8 °F 94% 29.94 in 10.0 mi East 5.8 mph - N/A   Overcast
3:58 AM 71.4 °F 70.2 °F 96% 29.94 in 10.0 mi East 8.1 mph - N/A   Overcast
4:58 AM 71.4 °F 70.2 °F 96% 29.94 in 10.0 mi East 5.8 mph - N/A   Overcast
5:28 AM 71.6 °F 69.8 °F 94% 29.93 in 9.0 mi ENE 6.9 mph - N/A   Overcast
5:42 AM 71.6 °F 69.8 °F 94% 29.93 in 6.0 mi ENE 4.6 mph - N/A   Overcast
5:58 AM 71.6 °F 69.8 °F 94% 29.92 in 6.0 mi ENE 5.8 mph - N/A   Overcast
6:02 AM 71.6 °F 69.8 °F 94% 29.93 in 7.0 mi ENE 4.6 mph - N/A   Overcast
6:06 AM 71.6 °F 69.8 °F 94% 29.92 in 10.0 mi ENE 4.6 mph - N/A   Overcast
6:34 AM 71.6 °F 69.8 °F 94% 29.93 in 9.0 mi ENE 5.8 mph - N/A   Overcast
6:40 AM 71.6 °F 69.8 °F 94% 29.93 in 6.0 mi ENE 4.6 mph - N/A   Overcast
6:44 AM 71.6 °F 69.8 °F 94% 29.93 in 6.0 mi ENE 4.6 mph - N/A   Overcast
6:48 AM 71.6 °F 69.8 °F 94% 29.93 in 7.0 mi ENE 5.8 mph - N/A   Overcast
6:58 AM 71.2 °F 70.9 °F 99% 29.94 in 9.0 mi ENE 5.8 mph - N/A   Overcast
7:02 AM 71.6 °F 71.6 °F 100% 29.93 in 10.0 mi East 4.6 mph - N/A   Overcast
7:32 AM 71.6 °F 71.6 °F 100% 29.94 in 9.0 mi East 4.6 mph - N/A   Overcast
7:58 AM 71.2 °F 70.9 °F 99% 29.94 in 8.0 mi ENE 6.9 mph - N/A   Overcast
8:34 AM 71.6 °F 71.6 °F 100% 29.95 in 10.0 mi ENE 5.8 mph - N/A   Overcast
8:58 AM 72.3 °F 72.0 °F 99% 29.96 in 10.0 mi ENE 4.6 mph - N/A   Overcast
9:14 AM 73.4 °F 71.6 °F 94% 29.95 in 10.0 mi East 5.8 mph - N/A   Overcast
9:46 AM 73.4 °F 71.6 °F 94% 29.95 in 10.0 mi ENE 6.9 mph - N/A   Overcast
9:56 AM 73.4 °F 71.6 °F 94% 29.95 in 10.0 mi ENE 8.1 mph - N/A   Overcast
9:58 AM 74.1 °F 72.0 °F 93% 29.96 in 10.0 mi ENE 6.9 mph - N/A   Overcast
10:20 AM 75.2 °F 71.6 °F 89% 29.95 in 10.0 mi NE 8.1 mph - N/A   Overcast
10:44 AM 75.2 °F 71.6 °F 89% 29.95 in 10.0 mi NE 5.8 mph - N/A   Overcast
10:58 AM 75.4 °F 71.6 °F 88% 29.95 in 10.0 mi NE 6.9 mph - N/A   Overcast
11:06 AM 75.2 °F 71.6 °F 89% 29.95 in 10.0 mi ENE 8.1 mph - N/A   Overcast
11:16 AM 75.2 °F 71.6 °F 89% 29.95 in 10.0 mi ENE 9.2 mph - N/A   Overcast
11:58 AM 77.0 °F 71.4 °F 83% 29.94 in 10.0 mi NE 8.1 mph - N/A   Overcast
12:24 PM 77.0 °F 71.6 °F 83% 29.93 in 10.0 mi East 9.2 mph - N/A   Overcast
12:28 PM 77.0 °F 71.6 °F 83% 29.93 in 10.0 mi ENE 13.8 mph 17.3 mph N/A   Overcast
12:47 PM 75.2 °F 71.6 °F 89% 29.93 in 10.0 mi ENE 8.1 mph - N/A   Overcast
12:53 PM 75.2 °F 71.6 °F 89% 29.93 in 10.0 mi ENE 6.9 mph - N/A   Overcast
12:54 PM 75.2 °F 71.6 °F 89% 29.93 in 10.0 mi ENE 6.9 mph - N/A   Overcast
12:58 PM 75.4 °F 71.8 °F 89% 29.94 in 10.0 mi ENE 8.1 mph - N/A   Overcast
1:04 PM 75.2 °F 71.6 °F 89% 29.93 in 10.0 mi East 10.4 mph - N/A   Overcast
1:28 PM 78.8 °F 71.6 °F 78% 29.92 in 10.0 mi East 6.9 mph - N/A   Overcast
1:40 PM 78.8 °F 71.6 °F 78% 29.92 in 10.0 mi ESE 8.1 mph - N/A   Overcast
1:48 PM 78.8 °F 71.6 °F 78% 29.92 in 10.0 mi East 8.1 mph - N/A   Overcast
1:58 PM 78.4 °F 71.2 °F 78% 29.92 in 10.0 mi East 10.4 mph - N/A   Overcast
2:58 PM 77.7 °F 71.8 °F 82% 29.90 in 8.0 mi ENE 5.8 mph - N/A   Overcast
3:34 PM 78.8 °F 71.6 °F 78% 29.88 in 10.0 mi East 10.4 mph - N/A   Overcast
3:58 PM 78.1 °F 71.1 °F 79% 29.88 in 10.0 mi ENE 8.1 mph - N/A   Overcast
4:03 PM 78.8 °F 71.6 °F 78% 29.88 in 10.0 mi East 8.1 mph - N/A Rain Light Rain
4:20 PM 78.8 °F 71.6 °F 78% 29.88 in 10.0 mi East 6.9 mph - N/A   Overcast
4:29 PM 78.8 °F 71.6 °F 78% 29.88 in 10.0 mi ENE 8.1 mph - N/A Rain Light Rain
4:39 PM 78.8 °F 71.6 °F 78% 29.88 in 10.0 mi East 5.8 mph - N/A   Overcast
4:49 PM 78.8 °F 71.6 °F 78% 29.88 in 10.0 mi ENE 8.1 mph - N/A Rain Light Rain
4:58 PM 79.0 °F 71.2 °F 77% 29.88 in 10.0 mi ENE 9.2 mph - 0.00 in Rain Light Rain
5:00 PM 78.8 °F 71.6 °F 78% 29.88 in 10.0 mi East 8.1 mph - N/A   Overcast
5:58 PM 78.6 °F 72.1 °F 80% 29.88 in 10.0 mi East 8.1 mph - 0.00 in   Overcast
6:54 PM 77.0 °F 71.6 °F 83% 29.88 in 10.0 mi Variable 5.8 mph - N/A   Overcast
6:58 PM 76.5 °F 71.1 °F 83% 29.88 in 10.0 mi ENE 9.2 mph - N/A   Overcast
7:40 PM 75.2 °F 71.6 °F 89% 29.89 in 10.0 mi ENE 9.2 mph - N/A   Overcast
7:50 PM 75.2 °F 71.6 °F 89% 29.89 in 10.0 mi NE 5.8 mph - N/A   Overcast
7:56 PM 75.2 °F 71.6 °F 89% 29.88 in 10.0 mi ENE 6.9 mph - N/A   Overcast
7:58 PM 74.5 °F 70.9 °F 88% 29.88 in 10.0 mi NE 4.6 mph - N/A   Overcast
8:36 PM 73.4 °F 71.6 °F 94% 29.88 in 10.0 mi East 6.9 mph - N/A   Overcast
8:38 PM 73.4 °F 71.6 °F 94% 29.88 in 10.0 mi East 6.9 mph - N/A   Overcast
8:43 PM 73.4 °F 71.6 °F 94% 29.88 in 10.0 mi East 5.8 mph - N/A   Mostly Cloudy
8:49 PM 73.4 °F 71.6 °F 94% 29.88 in 10.0 mi East 5.8 mph - N/A   Mostly Cloudy
8:58 PM 72.7 °F 70.7 °F 93% 29.88 in 10.0 mi East 5.8 mph - N/A   Mostly Cloudy
9:24 PM 73.4 °F 71.6 °F 94% 29.89 in 10.0 mi ENE 2.3 mph - N/A   Overcast
9:28 PM 73.4 °F 71.6 °F 94% 29.89 in 10.0 mi ENE 2.3 mph - N/A   Overcast
9:58 PM 72.7 °F 70.3 °F 92% 29.88 in 10.0 mi ENE 6.9 mph - N/A   Overcast
10:08 PM 73.4 °F 69.8 °F 88% 29.88 in 10.0 mi ENE 5.8 mph - N/A   Overcast
10:58 PM 72.5 °F 70.2 °F 92% 29.87 in 10.0 mi ENE 6.9 mph - N/A   Mostly Cloudy
11:00 PM 71.6 °F 69.8 °F 94% 29.86 in 10.0 mi ENE 5.8 mph - N/A   Mostly Cloudy
11:58 PM 71.6 °F 69.8 °F 94% 29.86 in 10.0 mi ENE 3.5 mph - N/A   Overcast